sat.trackr.live / text

‹ back to catalog

STARLINK-5333

NORAD 56507 · 2023-065E

PAYLOAD ACTIVE UNKNOWN

§ Identity

Operator
Country
US
Launch date
2023-05-14
Launch site
AFETR
Launch vehicle
Mass (kg)
RCS (m²)

Purposes: comms

External: N2YO · Heavens-Above · Gunter

§ Orbital elements

Epoch: 2026-09-20T01:38:15.779616Z

Period
94.27 min
Inclination
43.0018°
Eccentricity
0.0001479
Mean motion
15.27576307 rev/d
Perigee alt
482.0 km
Apogee alt
484.1 km
Semi-major
6,861.2 km
B*
2.1400e-5
RAAN
161.9799°
Arg perigee
265.0367°
Mean anomaly
95.0316°
Rev number
18,670

§ Raw data

STARLINK-53331 56507U 23065E   26263.06823819  .00000327  00000+0  21400-4 0  99972 56507  43.0018 161.9799 0001479 265.0367  95.0316 15.27576307186702

JSON: /api/v1/satellites/56507 · /tle

For live sub-satellite position, see the globe view (requires WebGL).

§ Visibility from observer

Set your observer location to see the next 7 days of passes ≥ 10°. The values pass through the URL so the page stays shareable.

No JS? Fill the form by hand. The geolocation button needs JavaScript.